Вернуться в каталог

COSMOS 574

АктивенВоенныеPO
NORAD 6707·PAYLOAD·🇷🇺 Russia

Запущен Jun 20, 1973 с Plesetsk Cosmodrome

Loading…

Ближайшие Пролёты (ближайшие 24 часа)

TLE

СвежийSource: Space-Track

Эпоха: Sep 14, 2026, 10:34 UTC

1 06707U 73042A   26257.44039044  .00000058  00000-0  46767-4 0  9993
2 06707  82.9491 127.9838 0021483   3.6729 170.8135 13.72429366102919

Отслеживайте COSMOS 574 в реальном времени с AllMySat

Download on the App Store